Погода в Заплывине

Россия / Алтайский край     53°56′16″N   84°34′26″E
темп.,
°C
ветер,
м/с
пор.,
м/с
влажн.,
%
обл.,
%
осадки,
мм/ч
давл.,
гПа
погр.,
м
16 мая, вс
вс1601:00+13зюз396294 0.2 1018138
04:00+13юз4117178 0.6 1016210
07:00+13зюз3107374 0.7 1016276
10:00+19зюз57585 0.7 1014518
13:00+24зюз684447 1.0 10131297
16:00+27з7113393 0.0 10113051
19:00+16юв3376100 3.9 101048
22:00+15ссз2378100 1.4 101051
17 мая, пн
пн1701:00+14ююз3489100 1.9 101161
04:00+13зсз2291100 0.0 101152
07:00+14с259281 0.0 1012305
10:00+17ссв346988 0.0 1014843
13:00+21сз345099 0.0 10141583
16:00+22сз6645100 0.0 10142039
19:00+19ссз56557 0.0 10151013
22:00+14в11726 0.0 101511
18 мая, вт
вт1801:00+13ю357560 0.0 101383
04:00+12юз31189100 0.9 1013310
07:00+14юз51482100 1.2 1009440
10:00+20юз7106379 0.1 1007650
13:00+24з6114816 0.1 10051500
16:00+27зсз916395 0.0 10033235
19:00+23зсз713485 0.0 10031431
22:00+16ссз487173 0.0 1005195
19 мая, ср
ср1901:00+13с2289100 0.0 100519
04:00+12с2295100 0.3 100548
07:00+12св4695100 3.6 1004384
10:00+9ссв61289100 0.4 1006690
13:00+7с51183100 3.3 1009844
16:00+11ссв7944100 1.3 10101614
19:00+10с71044100 1.3 10121734
22:00+6с38451 0.0 1014208
20 мая, чт
чт2001:00+3ссз22552 0.0 101627
04:00+2ссз246516 0.0 101669
07:00+3ссз3663100 0.0 1018237
10:00+7ссз5738100 0.0 10192460
13:00+9ссз6732100 0.0 10182872
16:00+9с6833100 0.0 10192710
19:00+9с473718 0.0 10202354
22:00+4ююв0046100 0.0 102210